Powrót do katalogu

ALOS-4

AktywnyNaukaSSO
NORAD 60182·PAYLOAD·🇯🇵 Japan

Wystrzelony Jul 1, 2024 z Tanegashima Space Center

Loading…

Następne Przeloty (najbliższe 24 godziny)

TLE

ŚwieżeSource: Space-Track

Epoka: Sep 14, 2026, 21:46 UTC

1 60182U 24123A   26257.90730632  .00001089  00000-0  15262-3 0  9998
2 60182  97.9220 353.7915 0001500  98.4413 261.6968 14.79474259119142

Śledź ALOS-4 w czasie rzeczywistym z AllMySat

Download on the App Store